Location: Passo di Treia
(43.2833°N, 13.3333°E)
Time: 09:02:47
(UTC+00:00)

USA 215 - Pass Details

Date: 09 December 2019
Orbit: 1099 x 1109 km, 123.0° (Epoch: 03 January)

Event Time Altitude Azimuth Distance (km) Brightness Sun altitude
Exits shadow 16:15:07 - 45° (NE) 3,224 5.1 -8.0°
Reaches altitude 10° 16:15:49 10° 44° (NE) 2,965 4.9 -8.1°
Maximum altitude 16:22:07 53° 330° (NNW) 1,331 3.8 -9.1°
Drops below altitude 10° 16:28:26 10° 256° (WSW) 2,962 7.1 -10.2°
Sets 16:30:58 0° 251° (WSW) 3,920 8.4 -10.6°
